#timestamp,LO_Frequency,Hit,StdDev 
1523037615.3,286047001.6,N
1523037635.1,286047002.5,N
1523037655.8,286047002.0,N
1523037675.7,286047001.4,N
1523037695.5,286047002.2,N
1523037715.4,286047001.8,N
1523037735.2,286047001.7,N
1523037755.0,286047002.4,N
1523037755.9,286047002.4,N
1523037775.8,286047002.3,N
1523037795.6,286047000.4,N
1523037815.4,286047002.5,N
1523037835.3,286047002.4,N
1523037855.1,286047002.6,N
1523037875.9,286047001.8,N
1523037895.7,286047001.7,N
1523037915.5,286047004.2,Y
1523037935.4,286046999.7,P
1523037955.2,286047000.6,N
1523037975.1,286047001.2,N
1523037976.0,286047001.2,N
1523037995.8,286047000.7,N
1523038015.6,286047001.0,N
1523038035.5,286046998.1,Y
1523038055.3,286046999.1,P
1523038075.1,286046997.2,P
1523038095.9,286046996.8,N
1523038115.7,286046996.6,N
1523038135.6,286046996.6,N
1523038155.4,286046996.7,N
1523038175.2,286046997.0,N
1523038195.1,286046997.7,N
1523038196.0,286046997.7,N
1523038215.8,286046997.3,N
1523038235.7,286046999.6,N
1523038255.5,286046997.0,N
1523038275.3,286046996.7,N
1523038295.2,286046996.7,N
1523038315.0,286046997.3,N
1523038315.9,286046997.3,N
1523038335.8,286046997.8,N
1523038355.6,286046997.5,N
1523038375.4,286046995.1,Y
1523038395.3,286046999.6,P
1523038415.1,286046996.8,P
1523038435.8,286046996.7,N
1523038455.7,286046999.6,N
1523038475.5,286046999.5,N
1523038495.4,286046997.0,N
1523038515.2,286046996.8,N
1523038535.0,286046996.8,N
1523038535.9,286046996.8,N
1523038555.8,286046998.9,N
1523038575.6,286046996.5,N
1523038595.4,286046997.0,N
1523038615.3,286046996.9,N
1523038635.1,286046997.4,N
1523038655.9,286046997.9,N
1523038675.7,286046997.5,N
1523038695.5,286046995.6,Y
1523038715.4,286046996.7,P
1523038735.2,286046999.6,N
1523038755.1,286046999.0,N
1523038756.0,286046999.0,N
1523038775.8,286046998.3,N
1523038795.6,286046998.6,N
1523038815.5,286047000.7,N
1523038835.3,286046998.3,N
1523038855.2,286046999.0,N
1523038875.9,286046998.4,N
1523038895.7,286047001.2,N
1523038915.6,286046998.5,N
1523038935.4,286046998.1,N
1523038955.2,286047001.2,N
1523038975.1,286046998.6,N
1523038976.0,286046998.6,N
1523038995.8,286046999.3,N
1523039015.7,286046996.5,Y
1523039035.5,286046998.7,P
1523039055.3,286047000.4,P
1523039075.2,286046999.8,N
1523039095.0,286047000.0,N
1523039095.9,286047000.0,N
1523039115.8,286047000.0,N
1523039135.6,286047000.7,N
1523039155.4,286046998.2,N
1523039175.3,286047000.9,N
1523039195.1,286047000.8,N
1523039215.8,286047000.7,N
1523039235.7,286046996.5,Y
1523039255.5,286046996.9,P
1523039275.4,286046996.8,N
1523039295.2,286046997.3,N
1523039315.0,286046996.7,N
1523039315.9,286046996.7,N
1523039335.8,286046999.1,N
1523039355.6,286046999.2,N
1523039375.4,286046998.1,N
1523039395.3,286046999.0,N
1523039415.1,286046999.4,N
1523039435.9,286046996.5,N
1523039455.7,286046996.8,N
1523039475.5,286046999.6,N
1523039495.4,286046997.2,N
1523039515.2,286046997.0,N
1523039535.1,286046997.4,N
1523039536.0,286046997.4,N
1523039555.8,286046999.2,N
1523039575.6,286046997.0,N
1523039595.5,286046999.6,N
1523039615.3,286046999.0,N
1523039635.2,286046998.6,N
1523039655.9,286046998.6,N
1523039675.7,286046998.2,N
1523039695.6,286046999.3,N
1523039715.4,286046997.4,N
1523039735.2,286046996.9,N
1523039755.1,286046999.1,N
1523039756.0,286046999.1,N
1523039775.8,286046999.6,N
1523039795.7,286046997.1,N
1523039815.5,286046997.2,N
1523039835.3,286046997.0,N
1523039855.2,286046998.9,N
1523039875.0,286046998.4,N
1523039875.9,286046998.4,N
1523039895.8,286046997.0,Y
1523039915.6,286047000.9,P
1523039935.4,286047002.3,N
1523039955.3,286047000.3,N
1523039975.1,286047000.8,N
1523040025.9,286047000.6,E
1523040035.8,286047001.0,N
1523040055.7,286046998.6,P
1523040075.5,286046998.3,N
1523040095.3,286046999.7,N
1523040115.2,286047000.2,N
1523040135.0,286047002.1,N
1523040135.9,286047002.1,N
1523040155.8,286047002.1,N
1523040175.6,286047000.5,N
1523040195.4,286046999.7,N
1523040215.3,286047000.2,N
1523040235.1,286047002.3,N
1523040255.9,286047002.5,N
1523040275.7,286047002.4,N
1523040295.5,286047001.8,N
1523040315.4,286047000.6,N
1523040335.2,286047000.3,N
1523040355.1,286047002.3,N
1523040356.0,286047002.3,N
1523040375.8,286047004.2,Y
1523040395.6,286047002.7,P
1523040415.5,286047000.7,N
1523040435.3,286047000.0,N
1523040455.2,286047002.7,N
1523040475.9,286047001.9,N
1523040495.7,286046999.8,N
1523040515.6,286046999.2,N
1523040535.4,286046999.6,N
1523040555.3,286046999.4,N
1523040575.1,286047000.7,N
1523040595.8,286046998.5,N
1523040615.7,286046997.0,N
1523040635.5,286046998.3,N
1523040655.4,286046999.2,N
1523040675.2,286046998.8,N
1523040695.0,286047000.6,N
1523040695.9,286047000.6,N
1523040715.8,286047000.7,N
1523040735.6,286046998.9,N
1523040755.4,286046998.6,N
1523040775.3,286047000.7,N
1523040795.1,286046998.1,N
1523040815.9,286047000.8,N
1523040835.7,286047000.4,N
1523040855.5,286047000.5,N
1523040875.4,286047000.4,N
1523040895.2,286047000.2,N
1523040915.0,286047000.3,N
1523040916.0,286047000.3,N
1523040935.8,286047001.2,N
1523040955.6,286046999.9,N
1523040975.5,286046999.9,N
1523040995.3,286047000.8,N
1523041015.1,286047000.6,N
1523041035.9,286047001.0,N
1523041055.7,286047000.3,N
1523041075.6,286046999.9,N
1523041095.4,286047001.7,N
1523041115.2,286047004.4,Y
1523041135.1,286047004.4,P
1523041136.0,286047004.4,N
1523041155.8,286047001.6,N
1523041175.6,286047002.3,N
1523041195.5,286046999.7,N
